Simultaneous Nadir Overpasses (SNOs) Predictions

Prediction of SNOs between AQUA and NOAA-19 Satellite Orbit:

Table of predicted SNOs for the next 14.0 days since TLE Epoch: 9/15/2017
Index Date (AQUA) Time (AQUA) Lat,Lon (AQUA) SZA (AQUA ) Date (NOAA-19) Time (NOAA-19) Lat,Lon (NOAA-19) SZA (NOAA-19 ) Distance(km) Time Diff (sec)
1 09/17/2017 11:07:34 80.93, -27.08 80.83 09/17/2017 11:07:22 80.94, -26.92 80.83 2.99 12
2 09/19/2017 16:41:19 -80.94, 69.35 98.31 09/19/2017 16:41:14 -80.94, 69.33 98.31 0.51 5
3 09/21/2017 22:15:05 80.95, 165.83 82.55 09/21/2017 22:14:54 80.94, 165.94 82.54 2.11 11
4 09/24/2017 03:48:49 -80.93, -97.43 96.64 09/24/2017 03:48:45 -80.94, -97.44 96.63 0.50 4
5 09/26/2017 09:22:35 80.95, -1.05 84.24 09/26/2017 09:22:25 80.93, -0.91 84.22 2.79 10




NCC Satellite Simultaneous Nadir Overpasses (SNOs) Prediction Service
